Belen, NM

8:39 AM MDT on March 27, 2017 (GMT -0600)
Belen

Weather History for KE80 - November, 2011

Change the Weather History Date:

Tuesday, November 29, 2011

  Actual Average (KABQ) Record (KABQ)
Temperature  
Mean Temperature 45 °F -  
Max Temperature 58 °F 49 °F 69 °F (1949)
Min Temperature 32 °F 25 °F -7 °F (1976)
Degree Days  
Heating Degree Days 20    
Moisture  
Dew Point 14 °F    
Average Humidity 33    
Maximum Humidity 49    
Minimum Humidity 17    
Precipitation  
Precipitation 0.00 in - - ()
Sea Level Pressure  
Sea Level Pressure 30.29 in    
Wind  
Wind Speed 4 mph (West)    
Max Wind Speed 12 mph    
Max Gust Speed -    
Visibility 10 miles    
Events      
Averages and records for this station are not official NWS values.
T = Trace of Precipitation, MM = Missing Value Source: NWS Daily Summary

Daily Weather History Graph

Daily Weather History Graph

Search for Another Location

Airport or City:

Trip Planner

Search our weather history database for the weather conditions in past years. The results will help you decide how hot, cold, wet, or windy it might be!

Date:

Astronomy

Nov. 29, 2011 Rise Set
Actual Time 6:54 AM MST 4:56 PM MST
Civil Twilight 6:26 AM MST 5:24 PM MST
Nautical Twilight 5:55 AM MST 5:55 PM MST
Astronomical Twilight 5:25 AM MST 6:25 PM MST
Moon 10:46 AM MST (11/29) 9:48 PM MST (11/29)
Length of Visible Light 10h 57m
Length of Day
10h 02m
Waxing Crescent, 25% of the Moon is Illuminated
Nov 29
Waxing Crescent
Dec 2
First Quarter
Dec 10
Full
Dec 17
Last Quarter
Dec 24
New

Hourly Weather History & Observations

Time (MST) Temp. Windchill Dew Point Humidity Pressure Visibility Wind Dir Wind Speed Gust Speed Precip Events Conditions
12:15 AM 37.4 °F 33.8 °F 12.0 °F 35% 30.27 in 10.0 mi NW 4.6 mph - N/A   Clear
12:35 AM 38.1 °F 32.9 °F 12.2 °F 35% 30.26 in 10.0 mi West 6.9 mph - N/A   Clear
12:55 AM 39.9 °F - 12.6 °F 33% 30.27 in 10.0 mi Calm Calm - N/A   Clear
1:15 AM 40.3 °F 36.3 °F 12.9 °F 33% 30.28 in 10.0 mi SSE 5.8 mph - N/A   Clear
1:35 AM 37.2 °F 31.9 °F 13.3 °F 37% 30.28 in 10.0 mi SSW 6.9 mph - N/A   Clear
1:55 AM 36.3 °F 30.8 °F 13.1 °F 39% 30.28 in 10.0 mi SSW 6.9 mph - N/A   Clear
2:15 AM 36.0 °F 29.0 °F 12.9 °F 39% 30.27 in 10.0 mi WSW 9.2 mph - N/A   Clear
2:35 AM 34.9 °F 27.7 °F 12.6 °F 40% 30.27 in 10.0 mi WNW 9.2 mph - N/A   Clear
2:55 AM 35.8 °F 28.8 °F 11.8 °F 37% 30.27 in 10.0 mi WNW 9.2 mph - N/A   Clear
3:15 AM 36.7 °F 29.4 °F 11.5 °F 35% 30.27 in 10.0 mi WNW 10.4 mph - N/A   Clear
3:35 AM 37.0 °F 29.3 °F 11.8 °F 35% 30.27 in 10.0 mi NW 11.5 mph - N/A   Clear
3:55 AM 37.6 °F 30.5 °F 12.4 °F 36% 30.27 in 10.0 mi NNW 10.4 mph - N/A   Clear
4:15 AM 37.4 °F - 13.1 °F 37% 30.28 in 10.0 mi Calm Calm - N/A   Clear
4:35 AM 37.0 °F 34.5 °F 13.8 °F 39% 30.29 in 10.0 mi NNE 3.5 mph - N/A   Clear
4:55 AM 37.2 °F 34.7 °F 14.2 °F 39% 30.28 in 10.0 mi East 3.5 mph - N/A   Clear
5:15 AM 36.5 °F 31.8 °F 14.5 °F 41% 30.28 in 10.0 mi NE 5.8 mph - N/A   Clear
5:35 AM 35.6 °F - 15.1 °F 43% 30.29 in 10.0 mi Calm Calm - N/A   Clear
5:55 AM 34.9 °F 30.8 °F 14.7 °F 44% 30.29 in 10.0 mi SSE 4.6 mph - N/A   Clear
6:15 AM 34.7 °F - 14.2 °F 43% 30.30 in 10.0 mi Calm Calm - N/A   Clear
6:35 AM 34.2 °F 31.2 °F 14.4 °F 44% 30.31 in 10.0 mi SW 3.5 mph - N/A   Clear
6:55 AM 33.3 °F 30.2 °F 14.7 °F 47% 30.31 in 10.0 mi SSW 3.5 mph - N/A   Clear
7:15 AM 33.4 °F - 14.7 °F 46% 30.32 in 10.0 mi Calm Calm - N/A   Clear
7:35 AM 32.4 °F 26.9 °F 15.3 °F 49% 30.33 in 10.0 mi NW 5.8 mph - N/A   Clear
7:55 AM 34.7 °F - 16.2 °F 47% 30.32 in 10.0 mi Calm Calm - N/A   Clear
8:15 AM 35.8 °F 31.9 °F 16.5 °F 46% 30.33 in 10.0 mi ENE 4.6 mph - N/A   Clear
8:35 AM 35.4 °F - 17.2 °F 48% 30.34 in 10.0 mi Calm Calm - N/A   Clear
8:55 AM 37.2 °F - 16.9 °F 44% 30.35 in 10.0 mi Calm Calm - N/A   Clear
9:55 AM 45.1 °F 42.8 °F 14.9 °F 30% 30.36 in 10.0 mi SW 4.6 mph - N/A   Clear
10:15 AM 47.5 °F - 15.3 °F 28% 30.36 in 10.0 mi South 3.5 mph - N/A   Clear
10:35 AM 48.9 °F - 15.4 °F 26% 30.36 in 10.0 mi Calm Calm - N/A   Clear
11:15 AM 50.7 °F - 15.8 °F 25% 30.33 in 10.0 mi NE 3.5 mph - N/A   Clear
11:35 AM 51.3 °F - 16.0 °F 25% 30.33 in 10.0 mi Calm Calm - N/A   Clear
11:55 AM 52.3 °F - 16.0 °F 24% 30.33 in 10.0 mi North 4.6 mph - N/A   Clear
12:35 PM 54.1 °F - 15.4 °F 22% 30.30 in 10.0 mi Calm Calm - N/A   Clear
12:55 PM 54.5 °F - 15.1 °F 21% 30.29 in 10.0 mi Calm Calm - N/A   Clear
1:15 PM 55.4 °F - 14.9 °F 20% 30.29 in 10.0 mi Calm Calm - N/A   Clear
1:35 PM 56.5 °F - 14.5 °F 19% 30.28 in 10.0 mi Calm Calm - N/A   Clear
1:55 PM 56.8 °F - 14.2 °F 19% 30.27 in 10.0 mi Calm Calm - N/A   Clear
2:15 PM 57.4 °F - 14.0 °F 18% 30.26 in 10.0 mi Calm Calm - N/A   Clear
2:35 PM 57.9 °F - 14.0 °F 18% 30.26 in 10.0 mi Calm Calm - N/A   Clear
2:55 PM 58.1 °F - 14.0 °F 18% 30.26 in 10.0 mi Calm Calm - N/A   Clear
3:15 PM 58.3 °F - 13.6 °F 17% 30.25 in 10.0 mi South 3.5 mph - N/A   Clear
3:35 PM 57.7 °F - 13.6 °F 18% 30.25 in 10.0 mi Calm Calm - N/A   Clear
4:15 PM 57.6 °F - 14.2 °F 18% 30.25 in 10.0 mi Calm Calm - N/A   Clear
4:35 PM 56.7 °F - 14.7 °F 19% 30.24 in 10.0 mi SE 3.5 mph - N/A   Clear
5:15 PM 52.3 °F - 14.9 °F 23% 30.25 in 10.0 mi Calm Calm - N/A   Clear
5:35 PM 50.0 °F - 14.7 °F 25% 30.25 in 10.0 mi Calm Calm - N/A   Clear
5:55 PM 48.4 °F - 14.4 °F 26% 30.26 in 10.0 mi Calm Calm - N/A   Clear
6:35 PM 45.5 °F - 13.8 °F 28% 30.27 in 10.0 mi Calm Calm - N/A   Clear
6:55 PM 43.2 °F 41.5 °F 13.3 °F 30% 30.28 in 10.0 mi WSW 3.5 mph - N/A   Clear
7:15 PM 43.5 °F 40.9 °F 13.6 °F 30% 30.28 in 10.0 mi WSW 4.6 mph - N/A   Clear
7:35 PM 43.3 °F 41.7 °F 14.0 °F 31% 30.29 in 10.0 mi West 3.5 mph - N/A   Clear
7:55 PM 41.7 °F 39.8 °F 13.5 °F 32% 30.29 in 10.0 mi WNW 3.5 mph - N/A   Clear
8:35 PM 40.5 °F 36.5 °F 13.1 °F 33% 30.29 in 10.0 mi WNW 5.8 mph - N/A   Clear
8:55 PM 39.0 °F 34.8 °F 12.6 °F 34% 30.29 in 10.0 mi NW 5.8 mph - N/A   Clear
9:15 PM 37.8 °F - 12.4 °F 35% 30.29 in 10.0 mi Calm Calm - N/A   Clear
9:55 PM 38.3 °F 35.9 °F 12.9 °F 35% 30.30 in 10.0 mi ENE 3.5 mph - N/A   Clear
10:15 PM 36.1 °F - 13.3 °F 39% 30.29 in 10.0 mi Calm Calm - N/A   Clear
10:35 PM 34.9 °F 32.0 °F 13.1 °F 41% 30.29 in 10.0 mi North 3.5 mph - N/A   Clear
10:55 PM 32.9 °F 29.8 °F 12.9 °F 44% 30.29 in 10.0 mi NE 3.5 mph - N/A   Clear
11:15 PM 32.9 °F - 13.3 °F 44% 30.29 in 10.0 mi Calm Calm - N/A   Clear
11:35 PM 32.2 °F - 13.1 °F 45% 30.29 in 10.0 mi Calm Calm - N/A   Clear
11:55 PM 34.7 °F - 14.0 °F 43% 30.28 in 10.0 mi Calm Calm - N/A   Clear